Location: *
(6.0000°S, 32.3997°W)
Time: 16:52:10
(UTC+00:00)

Meteor 2-8 Rocket - Pass Details

Date: 01 April 2020
Orbit: 936 x 958 km, 82.5° (Epoch: 26 May)

Event Time Altitude Azimuth Distance (km) Brightness Sun altitude
Rises 20:26:48 0° 178° (S) 3,640 7.4 -3.9°
Reaches altitude 10° 20:29:20 10° 175° (S) 2,693 6.7 -4.5°
Maximum altitude 20:35:27 65° 94° (E) 1,045 4.5 -6.0°
Drops below altitude 10° 20:41:31 10° 13° (NNE) 2,676 6.7 -7.5°
Sets 20:44:01 0° 10° (N) 3,617 7.4 -8.1°
